Tracking 17150 objects as of 4-August-2015
HD Live streaming from Space Station

MINOTAUR R/B

Track MINOTAUR R/B now!
10-day predictions
MINOTAUR R/B is classified as:


NORAD ID: 26066
Int'l Code: 2000-004F
Perigee: 749.8 km
Apogee: 798.2 km
Inclination: 100.2 °
Period: 100.2 minutes
Semi major axis: 7145 km
RCS: 1.5369 m2 (large)
Launch date: January 27, 2000
Source: United States (US)

Note: This is a ROCKET BODY
Your satellite tracking list
Your tracking list is empty





NASA's NSSDC Master Catalog

Two Line Element Set (TLE):
1 26066U 00004F   15216.22457148  .00000031  00000-0  29838-4 0  9990
2 26066 100.2054 094.9029 0033878 054.1522 054.5900 14.37469504813812

Source of the keplerian elements: AFSPC

N2YO: 364